Location: Brookview Estates
(36.0476°N, 86.6931°W)
Time: 18:27:39
(UTC+00:00)

CZ-2C R/B - Pass Details

Date: 30 March 2020
Orbit: 705 x 907 km, 98.1° (Epoch: 03 June)

Event Time Altitude Azimuth Distance (km) Brightness Sun altitude
Exits shadow 00:47:56 - 141° (SE) 2,939 5.6 -9.1°
Reaches altitude 10° 00:49:34 10° 134° (SE) 2,333 5.0 -9.4°
Maximum altitude 00:54:07 34° 71° (ENE) 1,239 3.7 -10.3°
Drops below altitude 10° 00:58:31 10° 8° (N) 2,243 5.5 -11.2°
Sets 01:00:55 0° 359° (N) 3,147 6.4 -11.6°
